Regional Weather Roundup
Issued by NWS

Home | Current Version | Previous Version | Graphics & Text | Print | Product List | Glossary On
Versions: 1 2 3 4 5 6 7 8 9 10 11 12 13 14 15 16 17 18 19 20 21 22 23 24 25 26 27 28 29 30 31 32 33 34 35 36 37 38 39 40 41 42 43 44 45 46 47 48 49 50
000
ASUS43 KBIS 231810
RWRND

NORTH DAKOTA REGIONAL WEATHER ROUNDUP
NATIONAL WEATHER SERVICE BISMARCK ND
1200 PM CST THU FEB 23 2017

NOTE: "FAIR" INDICATES FEW OR NO CLOUDS BELOW 12,000 FEET WITH NO
SIGNIFICANT WEATHER AND/OR OBSTRUCTIONS TO VISIBILITY.


NDZ001>003-009>011-017-231900-
NORTHWEST NORTH DAKOTA

CITY           SKY/WX    TMP DP  RH WIND       PRES   REMARKS
WILLISTON      CLOUDY    27  24  89 NE14      30.09R FOG     WCI  16
6HR MIN TEMP:  26; 6HR MAX TEMP:  30; 6HR PCP: TRACE;

MINOT          CLOUDY    24  17  74 N13       30.09S WCI  12
MINOT AFB      CLOUDY    23  16  77 NE7       30.09S WCI  14
$$

NDZ018>021-031>035-040>046-231900-
SOUTHWEST NORTH DAKOTA

CITY           SKY/WX    TMP DP  RH WIND       PRES   REMARKS
BISMARCK       CLOUDY    31  25  78 NE8       30.02F
6HR MIN TEMP:  27; 6HR MAX TEMP:  32;

DICKINSON      CLOUDY    29  25  85 N14       29.96S WCI  18
GARRISON         N/A     23  18  81 NE14G23   30.04S WCI  11
6HR MIN TEMP:  23; 6HR MAX TEMP:  29; 6HR PCP:  0.06;

HETTINGER ARPT CLOUDY    30  25  81 NE15      29.96S WCI  19
$$

NDZ004>008-012>016-024-026-027-054-231900-
NORTHEAST NORTH DAKOTA

CITY           SKY/WX    TMP DP  RH WIND       PRES   REMARKS
GRAND FORKS    CLOUDY    28  18  66 NE15      30.08R WCI  16
GRND FRKS AFB  CLOUDY    26  22  84 NE14      30.08S WCI  15
DEVILS LAKE    CLOUDY    25  21  85 E8        30.05F WCI  16
$$

NDZ022-023-025-028>030-036>039-047>053-231900-
SOUTHEAST NORTH DAKOTA

CITY           SKY/WX    TMP DP  RH WIND       PRES   REMARKS
FARGO          CLOUDY    31  22  69 NE16      30.04F WCI  20
6HR MIN TEMP:  29; 6HR MAX TEMP:  31;

JAMESTOWN      CLOUDY    31  23  72 NE10      30.00F
$$





USA.gov is the U.S. government's official web portal to all federal, state and local government web resources and services.